FALCON 9 DEB (45105 NORAD) Tracking and Keplerian Element Data

This shows tracking and keplerian element data for the satellite.

Feedback or suggestion? Click here.




ElementValue
Catalog45105
NameFALCON 9 DEB
Epoch Orbit984
Epoch Day90.79886245
Epoch Year2020
RAAN277.3956
Inclination52.9869
Eccentricity0.0009257
Argument of Perigee276.2518
Mean Anonmoly83.7473
Mean Motion16.39032106
Decay Rate0.04701688
L11 45105U 20006BP 20090.79886245 .04701688 12344-4 37805-3 0 9991
L22 45105 52.9869 277.3956 0009257 276.2518 83.7473 16.39032106 9843

Live tracking and technical data element details for FALCON 9 DEB (NORAD 45105). FALCON 9 DEB can be tracked NOW for your location showing map with azimuth and elevation plus other details from your city location.

Track the satellite on the map from your city or location and see movement details for azimuth, elevation, latitude, longitude, range, height, and movement on the map or in text.







IsCatalogInMostPopularTable: catalog: 45105, numindb: 12
Update: records affected: 1



GetName: 45105 FALCON 9 DEB

Hit Count: updated at: Mon, 06 Apr 2020 15:21:01 GMT